TimePDT,TemperatureF,Dew PointF,Humidity,Sea Level PressureIn,VisibilityMPH,Wind Direction,Wind SpeedMPH,Gust SpeedMPH,PrecipitationIn,Events,Conditions,WindDirDegrees,DateUTC
12:52 AM,63.0,39.9,43,29.94,10.0,NE,3.5,-,N/A,,Clear,50,2013-10-14 07:52:00
1:52 AM,66.0,28.9,25,29.94,10.0,North,10.4,-,N/A,,Clear,360,2013-10-14 08:52:00
2:52 AM,68.0,28.9,23,29.94,10.0,NNW,11.5,-,N/A,,Clear,340,2013-10-14 09:52:00
3:52 AM,66.9,30.0,25,29.95,10.0,NNW,10.4,-,N/A,,Clear,340,2013-10-14 10:52:00
4:52 AM,62.1,41.0,46,29.97,10.0,East,4.6,-,N/A,,Clear,90,2013-10-14 11:52:00
5:52 AM,63.0,33.1,33,29.99,10.0,North,4.6,-,N/A,,Clear,10,2013-10-14 12:52:00
6:52 AM,63.0,32.0,31,30.00,10.0,NNW,8.1,-,N/A,,Clear,340,2013-10-14 13:52:00
7:52 AM,69.1,33.1,26,30.01,10.0,NNW,13.8,-,N/A,,Clear,340,2013-10-14 14:52:00
8:52 AM,73.0,35.1,25,30.04,10.0,NNW,16.1,-,N/A,,Clear,340,2013-10-14 15:52:00
9:52 AM,75.0,37.9,26,30.04,10.0,Variable,5.8,-,N/A,,Clear,0,2013-10-14 16:52:00
10:52 AM,78.1,37.0,23,30.04,10.0,ENE,4.6,-,N/A,,Clear,60,2013-10-14 17:52:00
11:52 AM,80.1,33.1,18,30.01,10.0,NW,10.4,17.3,N/A,,Clear,320,2013-10-14 18:52:00
12:52 PM,82.0,33.1,17,29.98,10.0,NNW,13.8,-,N/A,,Clear,340,2013-10-14 19:52:00
1:52 PM,84.0,30.9,15,29.95,10.0,NNW,12.7,19.6,N/A,,Clear,340,2013-10-14 20:52:00
2:52 PM,84.0,28.0,13,29.93,10.0,North,9.2,-,N/A,,Clear,10,2013-10-14 21:52:00
3:52 PM,84.0,30.0,14,29.92,10.0,NE,9.2,17.3,N/A,,Clear,40,2013-10-14 22:52:00
4:52 PM,82.9,30.0,15,29.91,10.0,North,5.8,-,N/A,,Clear,10,2013-10-14 23:52:00
5:52 PM,81.0,28.9,15,29.91,10.0,North,8.1,-,N/A,,Clear,10,2013-10-15 00:52:00
6:52 PM,75.0,27.0,17,29.92,10.0,North,5.8,-,N/A,,Clear,360,2013-10-15 01:52:00
7:52 PM,71.1,26.1,19,29.93,10.0,NNW,5.8,-,N/A,,Clear,330,2013-10-15 02:52:00
8:52 PM,70.0,27.0,20,29.94,10.0,NW,9.2,-,N/A,,Clear,320,2013-10-15 03:52:00
9:52 PM,70.0,28.0,21,29.94,10.0,NW,10.4,-,N/A,,Clear,320,2013-10-15 04:52:00
10:52 PM,68.0,28.0,22,29.94,10.0,NNW,8.1,-,N/A,,Clear,330,2013-10-15 05:52:00
11:52 PM,64.0,28.0,26,29.94,10.0,NNW,6.9,-,N/A,,Clear,340,2013-10-15 06:52:00